VIR21 EGLL-KIAD

Flight info

Callsign VIR21
Flight time N/A
Altitude 34000
Route CPT L9 BIBPE DCT BUCGO DCT FELCA DCT NICXI DCT BAKUR DCT NEBIN/M085F360 DCT 5330N02000W 5330N03000W 53N040W 52N050W DCT TUDEP/N0491F360 N526A TOPPS/N0497F380 DCT KAYCC DCT KYLOH DCT BAF HYPER9
Aircraft A35K/H-SDE2E3GHIJ3J4J5LM1ORWXY/LB1D1

Departure

Time N/A
Airport London Heathrow Airport (EGLL)

Arrival

Time 2026-05-04 02:15
Airport Washington Dulles International Airport (KIAD)
Time Latitude Longitude Altitude Speed Heading
2026-05-03 20:15 53.51360 -15.76569 36183 ft 500 kts 275°
2026-05-03 20:15 53.51524 -15.88258 36188 ft 499 kts 275°
2026-05-03 20:16 53.51675 -15.99897 36191 ft 499 kts 275°
2026-05-03 20:16 53.51816 -16.11565 36185 ft 499 kts 275°
2026-05-03 20:17 53.51945 -16.23256 36192 ft 500 kts 275°
2026-05-03 20:17 53.52063 -16.34943 36196 ft 500 kts 275°
2026-05-03 20:18 53.52169 -16.46617 36203 ft 500 kts 275°
2026-05-03 20:18 53.52264 -16.58227 36200 ft 500 kts 274°
2026-05-03 20:19 53.52348 -16.69929 36198 ft 500 kts 274°
2026-05-03 20:19 53.52420 -16.81611 36200 ft 500 kts 274°
2026-05-03 20:20 53.52481 -16.93272 36203 ft 499 kts 274°
2026-05-03 20:20 53.52530 -17.04884 36209 ft 499 kts 274°
2026-05-03 20:21 53.52568 -17.16548 36205 ft 498 kts 274°
2026-05-03 20:21 53.52595 -17.28179 36215 ft 497 kts 274°
2026-05-03 20:22 53.52611 -17.39778 36224 ft 496 kts 273°
2026-05-03 20:22 53.52615 -17.51405 36206 ft 496 kts 273°
2026-05-03 20:23 53.52609 -17.63009 36209 ft 496 kts 273°
2026-05-03 20:23 53.52590 -17.74537 36231 ft 496 kts 273°
2026-05-03 20:24 53.52561 -17.86144 36212 ft 496 kts 272°
2026-05-03 20:24 53.52521 -17.97737 36216 ft 495 kts 272°
2026-05-03 20:25 53.52469 -18.09324 36226 ft 495 kts 272°
2026-05-03 20:25 53.52406 -18.20846 36222 ft 495 kts 272°
2026-05-03 20:26 53.52332 -18.32400 36226 ft 495 kts 272°
2026-05-03 20:26 53.52247 -18.44006 36222 ft 495 kts 272°
2026-05-03 20:27 53.52151 -18.55575 36233 ft 494 kts 272°
2026-05-03 20:27 53.52043 -18.67130 36234 ft 494 kts 272°
2026-05-03 20:28 53.51925 -18.78687 36234 ft 494 kts 271°
2026-05-03 20:28 53.51796 -18.90211 36236 ft 493 kts 271°
2026-05-03 20:29 53.51655 -19.01723 36239 ft 492 kts 271°
2026-05-03 20:29 53.51505 -19.13124 36238 ft 491 kts 271°
2026-05-03 20:30 53.51343 -19.24647 36243 ft 491 kts 271°
2026-05-03 20:30 53.51171 -19.36108 36244 ft 491 kts 271°
2026-05-03 20:31 53.50988 -19.47517 36248 ft 491 kts 271°
2026-05-03 20:31 53.50794 -19.58974 36246 ft 490 kts 270°
2026-05-03 20:32 53.50622 -19.68569 36248 ft 489 kts 270°
2026-05-03 20:32 53.50410 -19.79904 36249 ft 489 kts 270°
2026-05-03 20:33 53.50185 -19.91354 36253 ft 489 kts 270°
2026-05-03 20:33 53.50155 -20.02755 36242 ft 488 kts 275°
2026-05-03 20:34 53.50566 -20.14118 36258 ft 486 kts 276°
2026-05-03 20:34 53.51029 -20.25420 36260 ft 486 kts 276°
2026-05-03 20:35 53.51485 -20.36738 36256 ft 486 kts 276°
2026-05-03 20:35 53.51924 -20.48079 36265 ft 485 kts 276°
2026-05-03 20:36 53.52346 -20.59399 36252 ft 485 kts 275°
2026-05-03 20:36 53.52753 -20.70636 36270 ft 483 kts 275°
2026-05-03 20:37 53.53152 -20.81900 36271 ft 483 kts 275°
2026-05-03 20:37 53.53540 -20.93162 36269 ft 483 kts 275°
2026-05-03 20:38 53.53919 -21.04456 36269 ft 483 kts 275°
2026-05-03 20:38 53.54286 -21.15717 36272 ft 483 kts 275°
2026-05-03 20:39 53.54642 -21.27004 36272 ft 481 kts 275°
2026-05-03 20:39 53.54984 -21.38163 36274 ft 481 kts 275°
2026-05-03 20:40 53.55319 -21.49398 36275 ft 481 kts 275°
2026-05-03 20:40 53.55643 -21.60629 36277 ft 481 kts 275°
2026-05-03 20:41 53.55956 -21.71855 36279 ft 480 kts 275°
2026-05-03 20:41 53.56258 -21.83086 36279 ft 480 kts 275°
2026-05-03 20:42 53.56548 -21.94258 36284 ft 480 kts 275°
2026-05-03 20:42 53.56830 -22.05494 36284 ft 480 kts 274°
2026-05-03 20:43 53.57101 -22.16738 36283 ft 480 kts 274°
2026-05-03 20:43 53.57361 -22.27972 36283 ft 480 kts 274°
2026-05-03 20:44 53.57611 -22.39206 36284 ft 479 kts 274°
2026-05-03 20:44 53.57849 -22.50428 36289 ft 479 kts 274°
2026-05-03 20:45 53.58076 -22.61562 36296 ft 479 kts 274°
2026-05-03 20:45 53.58294 -22.72763 36295 ft 479 kts 274°
2026-05-03 20:46 53.58501 -22.83996 36298 ft 479 kts 274°
2026-05-03 20:46 53.58699 -22.95192 36295 ft 477 kts 273°
2026-05-03 20:47 53.58882 -23.06280 36303 ft 476 kts 273°
2026-05-03 20:47 53.59057 -23.17431 36301 ft 477 kts 273°
2026-05-03 20:48 53.59222 -23.28589 36308 ft 477 kts 273°
2026-05-03 20:48 53.59376 -23.39755 36315 ft 477 kts 273°
2026-05-03 20:49 53.59521 -23.50946 36319 ft 475 kts 272°
2026-05-03 20:49 53.59653 -23.61997 36320 ft 475 kts 272°
2026-05-03 20:50 53.59775 -23.73127 36307 ft 475 kts 272°
2026-05-03 20:50 53.59888 -23.84258 36318 ft 476 kts 272°
2026-05-03 20:51 53.59990 -23.95405 36319 ft 475 kts 272°
2026-05-03 20:51 53.60083 -24.06475 36316 ft 475 kts 272°
2026-05-03 20:52 53.60164 -24.17608 36324 ft 474 kts 272°
2026-05-03 20:52 53.60235 -24.28700 36322 ft 474 kts 271°
2026-05-03 20:53 53.60295 -24.39791 36325 ft 473 kts 271°
2026-05-03 20:53 53.60346 -24.50883 36328 ft 474 kts 271°
2026-05-03 20:54 53.60386 -24.61983 36330 ft 474 kts 271°
2026-05-03 20:54 53.60428 -24.78546 36331 ft 474 kts 271°
2026-05-03 20:55 53.60442 -24.89661 36336 ft 473 kts 271°
2026-05-03 20:55 53.60446 -25.00762 36335 ft 474 kts 271°
2026-05-03 20:56 53.60440 -25.11846 36342 ft 473 kts 271°
2026-05-03 20:56 53.60424 -25.22943 36346 ft 474 kts 271°
2026-05-03 20:57 53.60398 -25.34023 36344 ft 473 kts 271°
2026-05-03 20:57 53.60362 -25.45032 36344 ft 473 kts 271°
2026-05-03 20:58 53.60315 -25.56128 36345 ft 473 kts 271°
2026-05-03 20:58 53.60258 -25.67214 36344 ft 473 kts 270°
2026-05-03 20:59 53.60190 -25.78295 36342 ft 472 kts 271°
2026-05-03 20:59 53.60113 -25.89286 36344 ft 471 kts 270°
2026-05-03 21:00 53.60056 -25.96677 36356 ft 471 kts 270°
2026-05-03 21:00 53.59929 -26.11360 36357 ft 471 kts 270°
2026-05-03 21:01 53.59821 -26.22395 36357 ft 471 kts 270°
2026-05-03 21:01 53.59703 -26.33448 36354 ft 471 kts 270°
2026-05-03 21:02 53.59575 -26.44483 36360 ft 471 kts 270°
2026-05-03 21:02 53.59438 -26.55450 36360 ft 470 kts 270°
2026-05-03 21:03 53.59291 -26.66459 36362 ft 470 kts 270°
2026-05-03 21:03 53.59132 -26.77489 36363 ft 470 kts 270°
2026-05-03 21:04 53.58965 -26.88419 36361 ft 470 kts 269°
2026-05-03 21:04 53.58788 -26.99436 36365 ft 470 kts 269°
2026-05-03 21:05 53.58600 -27.10433 36365 ft 470 kts 269°
2026-05-03 21:05 53.58401 -27.21451 36365 ft 470 kts 269°
2026-05-03 21:06 53.58192 -27.32462 36371 ft 470 kts 269°
2026-05-03 21:06 53.57974 -27.43457 36374 ft 470 kts 269°
2026-05-03 21:07 53.57745 -27.54456 36371 ft 470 kts 269°
2026-05-03 21:07 53.57506 -27.65486 36373 ft 470 kts 269°
2026-05-03 21:08 53.57260 -27.76408 36375 ft 470 kts 269°
2026-05-03 21:08 53.57001 -27.87410 36376 ft 470 kts 268°
2026-05-03 21:09 53.56731 -27.98413 36376 ft 470 kts 268°
2026-05-03 21:09 53.56453 -28.09414 36382 ft 470 kts 268°
2026-05-03 21:10 53.56164 -28.20400 36379 ft 470 kts 268°
2026-05-03 21:10 53.55864 -28.31411 36382 ft 470 kts 268°
2026-05-03 21:11 53.55557 -28.42336 36381 ft 471 kts 268°
2026-05-03 21:11 53.55235 -28.53393 36387 ft 471 kts 268°
2026-05-03 21:12 53.54908 -28.64328 36384 ft 471 kts 267°
2026-05-03 21:12 53.54568 -28.75329 36387 ft 470 kts 267°
2026-05-03 21:13 53.54218 -28.86329 36390 ft 470 kts 267°
2026-05-03 21:13 53.53859 -28.97304 36391 ft 471 kts 267°
2026-05-03 21:14 53.53489 -29.08295 36389 ft 471 kts 267°
2026-05-03 21:14 53.53109 -29.19281 36389 ft 471 kts 266°
2026-05-03 21:15 53.52719 -29.30275 36393 ft 471 kts 266°
2026-05-03 21:15 53.52320 -29.41204 36398 ft 471 kts 266°
2026-05-03 21:16 53.51978 -29.50401 36395 ft 471 kts 266°
2026-05-03 21:16 53.51560 -29.61364 36398 ft 471 kts 266°
2026-05-03 21:17 53.51130 -29.72357 36392 ft 471 kts 266°
2026-05-03 21:17 53.50692 -29.83341 36403 ft 471 kts 266°
2026-05-03 21:18 53.50246 -29.94251 36403 ft 471 kts 266°
2026-05-03 21:18 53.49826 -30.05266 36403 ft 471 kts 268°
2026-05-03 21:19 53.49744 -30.16268 36404 ft 471 kts 269°
2026-05-03 21:19 53.49728 -30.27299 36400 ft 472 kts 269°
2026-05-03 21:20 53.49650 -30.38247 36403 ft 472 kts 268°
2026-05-03 21:20 53.49526 -30.49284 36403 ft 472 kts 268°
2026-05-03 21:21 53.49385 -30.60312 36403 ft 472 kts 268°
2026-05-03 21:21 53.49235 -30.71344 36403 ft 472 kts 268°
2026-05-03 21:22 53.49079 -30.82295 36406 ft 472 kts 268°
2026-05-03 21:22 53.48912 -30.93315 36407 ft 472 kts 268°
2026-05-03 21:23 53.48735 -31.04311 36411 ft 471 kts 268°
2026-05-03 21:23 53.48548 -31.15303 36411 ft 471 kts 268°
2026-05-03 21:24 53.48351 -31.26310 36415 ft 472 kts 267°
2026-05-03 21:24 53.48144 -31.37322 36414 ft 472 kts 267°
2026-05-03 21:25 53.47925 -31.48352 36414 ft 472 kts 267°
2026-05-03 21:25 53.47698 -31.59335 36414 ft 470 kts 267°
2026-05-03 21:26 53.47461 -31.70314 36415 ft 470 kts 267°
2026-05-03 21:26 53.47215 -31.81207 36416 ft 470 kts 267°
2026-05-03 21:27 53.46958 -31.92169 36414 ft 470 kts 267°
2026-05-03 21:27 53.46691 -32.03125 36416 ft 470 kts 267°
2026-05-03 21:28 53.46414 -32.14085 36416 ft 468 kts 267°
2026-05-03 21:28 53.46128 -32.24980 36416 ft 467 kts 267°
2026-05-03 21:29 53.45833 -32.35900 36420 ft 467 kts 267°
2026-05-03 21:29 53.45529 -32.46729 36420 ft 467 kts 266°
2026-05-03 21:30 53.45214 -32.57621 36421 ft 467 kts 266°
2026-05-03 21:30 53.44889 -32.68515 36415 ft 467 kts 267°
2026-05-03 21:31 53.44554 -32.79368 36418 ft 464 kts 267°
2026-05-03 21:31 53.44214 -32.90119 36420 ft 463 kts 266°
2026-05-03 21:32 53.43863 -33.00908 36423 ft 463 kts 266°
2026-05-03 21:32 53.43501 -33.11718 36420 ft 464 kts 266°
2026-05-03 21:33 53.43129 -33.22520 36419 ft 463 kts 266°
2026-05-03 21:33 53.42750 -33.33264 36430 ft 464 kts 266°
2026-05-03 21:34 53.42359 -33.44079 36421 ft 464 kts 266°
2026-05-03 21:34 53.41958 -33.54900 36417 ft 464 kts 266°
2026-05-03 21:35 53.41547 -33.65700 36429 ft 464 kts 266°
2026-05-03 21:35 53.41129 -33.76441 36429 ft 464 kts 266°
2026-05-03 21:36 53.40698 -33.87228 36425 ft 463 kts 266°
2026-05-03 21:36 53.40259 -33.98002 36412 ft 461 kts 266°
2026-05-03 21:37 53.39813 -34.08718 36419 ft 461 kts 266°
2026-05-03 21:37 53.39357 -34.19447 36420 ft 461 kts 266°
2026-05-03 21:38 53.38894 -34.30090 36423 ft 461 kts 266°
2026-05-03 21:38 53.38419 -34.40817 36421 ft 461 kts 265°
2026-05-03 21:39 53.37933 -34.51542 36418 ft 460 kts 265°
2026-05-03 21:39 53.37440 -34.62215 36419 ft 459 kts 265°
2026-05-03 21:40 53.36937 -34.72894 36417 ft 459 kts 265°
2026-05-03 21:40 53.36426 -34.83553 36426 ft 459 kts 265°
2026-05-03 21:41 53.35908 -34.94156 36420 ft 459 kts 265°
2026-05-03 21:41 53.35377 -35.04814 36414 ft 458 kts 265°
2026-05-03 21:42 53.34838 -35.15439 36417 ft 457 kts 265°
2026-05-03 21:42 53.34292 -35.26036 36408 ft 457 kts 265°
2026-05-03 21:43 53.33736 -35.36627 36425 ft 457 kts 265°
2026-05-03 21:43 53.33170 -35.47228 36424 ft 457 kts 265°
2026-05-03 21:44 53.32599 -35.57752 36421 ft 457 kts 265°
2026-05-03 21:44 53.32015 -35.68327 36417 ft 455 kts 265°
2026-05-03 21:45 53.31424 -35.78869 36409 ft 455 kts 265°
2026-05-03 21:45 53.30825 -35.89399 36412 ft 455 kts 265°
2026-05-03 21:46 53.30215 -35.99937 36412 ft 455 kts 265°
2026-05-03 21:46 53.29600 -36.10404 36409 ft 455 kts 265°
2026-05-03 21:47 53.28971 -36.20943 36411 ft 455 kts 265°
2026-05-03 21:47 53.28334 -36.31472 36414 ft 454 kts 264°
2026-05-03 21:48 53.27687 -36.41996 36411 ft 454 kts 264°
2026-05-03 21:48 53.27033 -36.52484 36403 ft 454 kts 264°
2026-05-03 21:49 53.26373 -36.62918 36414 ft 454 kts 264°
2026-05-03 21:49 53.25700 -36.73418 36421 ft 454 kts 264°
2026-05-03 21:50 53.25017 -36.83910 36412 ft 454 kts 264°
2026-05-03 21:50 53.24329 -36.94350 36407 ft 455 kts 264°
2026-05-03 21:51 53.23627 -37.04851 36411 ft 455 kts 264°
2026-05-03 21:51 53.22917 -37.15339 36408 ft 455 kts 264°
2026-05-03 21:52 53.22198 -37.25819 36405 ft 455 kts 264°
2026-05-03 21:52 53.21468 -37.36312 36401 ft 455 kts 263°
2026-05-03 21:53 53.20730 -37.46797 36402 ft 456 kts 263°
2026-05-03 21:53 53.19979 -37.57312 36389 ft 456 kts 263°
2026-05-03 21:54 53.19222 -37.67796 36393 ft 456 kts 263°
2026-05-03 21:54 53.18459 -37.78231 36403 ft 456 kts 263°
2026-05-03 21:55 53.17681 -37.88734 36401 ft 456 kts 263°
2026-05-03 21:55 53.16895 -37.99226 36398 ft 456 kts 263°
2026-05-03 21:56 53.16098 -38.09723 36395 ft 457 kts 263°
2026-05-03 21:56 53.15296 -38.20173 36392 ft 457 kts 263°
2026-05-03 21:57 53.14480 -38.30680 36388 ft 457 kts 263°
2026-05-03 21:57 53.13656 -38.41173 36387 ft 457 kts 263°
2026-05-03 21:58 53.12822 -38.51664 36381 ft 457 kts 262°
2026-05-03 21:58 53.11979 -38.62145 36386 ft 457 kts 262°
2026-05-03 21:59 53.11124 -38.72660 36383 ft 458 kts 262°
2026-05-03 21:59 53.10267 -38.83082 36385 ft 458 kts 262°
2026-05-03 22:00 53.09395 -38.93577 36386 ft 457 kts 262°
2026-05-03 22:00 53.08511 -39.04095 36379 ft 457 kts 262°
2026-05-03 22:01 53.07621 -39.14571 36377 ft 458 kts 262°
2026-05-03 22:01 53.06726 -39.24992 36372 ft 458 kts 262°
2026-05-03 22:02 53.05817 -39.35458 36374 ft 458 kts 262°
2026-05-03 22:02 53.05048 -39.44242 36368 ft 458 kts 262°
2026-05-03 22:03 53.04126 -39.54658 36368 ft 458 kts 262°
2026-05-03 22:03 53.03190 -39.65132 36374 ft 458 kts 261°
2026-05-03 22:04 53.02243 -39.75628 36375 ft 459 kts 261°
2026-05-03 22:04 53.01293 -39.86044 36363 ft 459 kts 261°
2026-05-03 22:05 53.00327 -39.96524 36358 ft 459 kts 261°
2026-05-03 22:05 52.99448 -40.07032 36349 ft 459 kts 264°
2026-05-03 22:06 52.98897 -40.17576 36363 ft 459 kts 265°
2026-05-03 22:06 52.98365 -40.28136 36356 ft 460 kts 264°
2026-05-03 22:07 52.97771 -40.38704 36348 ft 460 kts 264°
2026-05-03 22:07 52.97142 -40.49222 36349 ft 460 kts 264°
2026-05-03 22:08 52.96495 -40.59796 36342 ft 460 kts 264°
2026-05-03 22:08 52.95839 -40.70385 36348 ft 461 kts 264°
2026-05-03 22:09 52.95177 -40.80945 36337 ft 461 kts 264°
2026-05-03 22:10 52.94165 -40.96816 36334 ft 461 kts 263°
2026-05-03 22:10 52.93478 -41.07392 36322 ft 461 kts 263°
2026-05-03 22:11 52.92787 -41.17891 36323 ft 461 kts 263°
2026-05-03 22:11 52.92082 -41.28450 36324 ft 461 kts 263°
2026-05-03 22:12 52.91367 -41.39018 36332 ft 461 kts 263°
2026-05-03 22:12 52.90643 -41.49581 36323 ft 461 kts 263°
2026-05-03 22:13 52.89909 -41.60144 36322 ft 461 kts 263°
2026-05-03 22:13 52.89165 -41.70715 36316 ft 461 kts 263°
2026-05-03 22:14 52.88413 -41.81260 36308 ft 461 kts 263°
2026-05-03 22:14 52.87651 -41.91811 36308 ft 461 kts 263°
2026-05-03 22:15 52.86884 -42.02301 36296 ft 461 kts 262°
2026-05-03 22:15 52.86104 -42.12848 36295 ft 462 kts 262°
2026-05-03 22:16 52.85313 -42.23402 36314 ft 462 kts 262°
2026-05-03 22:16 52.84513 -42.33950 36290 ft 462 kts 262°
2026-05-03 22:17 52.83706 -42.44455 36289 ft 463 kts 262°
2026-05-03 22:17 52.82887 -42.55002 36286 ft 463 kts 262°
2026-05-03 22:18 52.82056 -42.65577 36287 ft 464 kts 262°
2026-05-03 22:18 52.81212 -42.76186 36277 ft 465 kts 262°
2026-05-03 22:19 52.80365 -42.86715 36277 ft 465 kts 262°
2026-05-03 22:19 52.79504 -42.97296 36271 ft 465 kts 261°
2026-05-03 22:20 52.78633 -43.07893 36273 ft 465 kts 261°
2026-05-03 22:20 52.77751 -43.18484 36267 ft 465 kts 261°
2026-05-03 22:21 52.76861 -43.29068 36274 ft 466 kts 261°
2026-05-03 22:21 52.75957 -43.39688 36266 ft 467 kts 261°
2026-05-03 22:22 52.75050 -43.50242 36250 ft 467 kts 261°
2026-05-03 22:22 52.74128 -43.60855 36250 ft 467 kts 261°
2026-05-03 22:23 52.73195 -43.71478 36246 ft 467 kts 261°
2026-05-03 22:23 52.72252 -43.82102 36239 ft 467 kts 261°
2026-05-03 22:24 52.71307 -43.92628 36234 ft 467 kts 261°
2026-05-03 22:24 52.70347 -44.03226 36234 ft 467 kts 261°
2026-05-03 22:25 52.69376 -44.13829 36234 ft 467 kts 261°
2026-05-03 22:25 52.68396 -44.24426 36228 ft 467 kts 261°
2026-05-03 22:26 52.67407 -44.35014 36224 ft 468 kts 261°
2026-05-03 22:26 52.66406 -44.45611 36218 ft 467 kts 261°
2026-05-03 22:27 52.65406 -44.56110 36218 ft 467 kts 261°
2026-05-03 22:27 52.64390 -44.66670 36212 ft 467 kts 261°
2026-05-03 22:28 52.63365 -44.77219 36214 ft 467 kts 261°
2026-05-03 22:28 52.62331 -44.87769 36201 ft 467 kts 261°
2026-05-03 22:29 52.61287 -44.98312 36202 ft 467 kts 261°
2026-05-03 22:29 52.60239 -45.08793 36192 ft 467 kts 260°
2026-05-03 22:30 52.59177 -45.19325 36191 ft 467 kts 260°
2026-05-03 22:30 52.58105 -45.29845 36193 ft 467 kts 260°
2026-05-03 22:31 52.57024 -45.40364 36187 ft 467 kts 260°
2026-05-03 22:31 52.55935 -45.50873 36182 ft 467 kts 260°
2026-05-03 22:32 52.54833 -45.61394 36178 ft 466 kts 260°
2026-05-03 22:32 52.53727 -45.71870 36177 ft 465 kts 260°
2026-05-03 22:33 52.52612 -45.82340 36167 ft 465 kts 260°
2026-05-03 22:33 52.51487 -45.92813 36178 ft 465 kts 260°
2026-05-03 22:34 52.50359 -46.03213 36159 ft 464 kts 260°
2026-05-03 22:34 52.49218 -46.13649 36150 ft 464 kts 260°
2026-05-03 22:35 52.48071 -46.24049 36157 ft 463 kts 260°
2026-05-03 22:35 52.46918 -46.34422 36148 ft 462 kts 260°
2026-05-03 22:36 52.45754 -46.44812 36148 ft 462 kts 260°
2026-05-03 22:36 52.44581 -46.55187 36142 ft 462 kts 260°
2026-05-03 22:37 52.43400 -46.65547 36136 ft 462 kts 260°
2026-05-03 22:37 52.42210 -46.75897 36125 ft 461 kts 260°
2026-05-03 22:38 52.41016 -46.86196 36129 ft 460 kts 260°
2026-05-03 22:38 52.39823 -46.96412 36123 ft 459 kts 260°
2026-05-03 22:39 52.38614 -47.06686 36115 ft 459 kts 260°
2026-05-03 22:39 52.37397 -47.16947 36118 ft 459 kts 260°
2026-05-03 22:40 52.36172 -47.27192 36117 ft 459 kts 260°
2026-05-03 22:40 52.34934 -47.37457 36101 ft 457 kts 260°
2026-05-03 22:41 52.33705 -47.47581 36111 ft 457 kts 260°
2026-05-03 22:41 52.32460 -47.57756 36111 ft 456 kts 260°
2026-05-03 22:42 52.31203 -47.67950 36095 ft 456 kts 259°
2026-05-03 22:42 52.29940 -47.78116 36092 ft 456 kts 259°
2026-05-03 22:43 52.28675 -47.88220 36079 ft 455 kts 259°
2026-05-03 22:43 52.27394 -47.98370 36073 ft 452 kts 259°
2026-05-03 22:44 52.26126 -48.08355 36087 ft 451 kts 259°
2026-05-03 22:44 52.24843 -48.18388 36081 ft 451 kts 259°
2026-05-03 22:45 52.23551 -48.28420 36082 ft 451 kts 259°
2026-05-03 22:45 52.22260 -48.38372 36076 ft 451 kts 259°
2026-05-03 22:46 52.20953 -48.48369 36065 ft 449 kts 259°
2026-05-03 22:46 52.19646 -48.58297 36071 ft 446 kts 259°
2026-05-03 22:47 52.18338 -48.68168 36061 ft 445 kts 259°
2026-05-03 22:47 52.17022 -48.78030 36054 ft 445 kts 259°
2026-05-03 22:48 52.15696 -48.87900 36055 ft 445 kts 259°
2026-05-03 22:48 52.14371 -48.97695 36056 ft 445 kts 259°
2026-05-03 22:49 52.13034 -49.07515 36046 ft 444 kts 259°
2026-05-03 22:49 52.11690 -49.17327 36045 ft 444 kts 259°
2026-05-03 22:50 52.10337 -49.27142 36042 ft 444 kts 259°
2026-05-03 22:50 52.08984 -49.36883 36042 ft 444 kts 259°
2026-05-03 22:51 52.07613 -49.46690 36038 ft 444 kts 259°
2026-05-03 22:51 52.06468 -49.54830 36034 ft 445 kts 259°
2026-05-03 22:52 52.05079 -49.64645 36033 ft 445 kts 259°
2026-05-03 22:52 52.03683 -49.74451 36029 ft 445 kts 259°
2026-05-03 22:53 52.02279 -49.84250 36028 ft 445 kts 259°
2026-05-03 22:53 52.00875 -49.93985 36026 ft 445 kts 259°
2026-05-03 22:54 51.99104 -50.03631 36026 ft 447 kts 252°
2026-05-03 22:54 51.96892 -50.13071 36012 ft 447 kts 251°
2026-05-03 22:55 51.94627 -50.22391 36018 ft 441 kts 251°
2026-05-03 22:55 51.92387 -50.31566 36020 ft 440 kts 251°
2026-05-03 22:56 51.90140 -50.40775 36024 ft 438 kts 251°
2026-05-03 22:56 51.87903 -50.49926 36015 ft 436 kts 251°
2026-05-03 22:57 51.85672 -50.59021 36012 ft 435 kts 251°
2026-05-03 22:57 51.83422 -50.68153 36007 ft 435 kts 251°
2026-05-03 22:58 51.81173 -50.77235 36007 ft 435 kts 251°
2026-05-03 22:58 51.78916 -50.86315 36007 ft 435 kts 251°
2026-05-03 22:59 51.76654 -50.95378 36004 ft 435 kts 251°
2026-05-03 22:59 51.74387 -51.04423 36004 ft 435 kts 251°
2026-05-03 23:00 51.72134 -51.13380 35997 ft 430 kts 250°
2026-05-03 23:00 51.69887 -51.22268 36001 ft 427 kts 250°
2026-05-03 23:01 51.67642 -51.31119 35995 ft 426 kts 250°
2026-05-03 23:01 51.65385 -51.39981 35996 ft 427 kts 250°
2026-05-03 23:02 51.63143 -51.48755 35989 ft 427 kts 250°
2026-05-03 23:02 51.60876 -51.57589 35986 ft 425 kts 249°
2026-05-03 23:03 51.58616 -51.66360 35981 ft 423 kts 249°
2026-05-03 23:03 51.56369 -51.75047 35982 ft 423 kts 249°
2026-05-03 23:04 51.54106 -51.83761 35975 ft 423 kts 249°
2026-05-03 23:04 51.51832 -51.92485 35974 ft 423 kts 249°
2026-05-03 23:05 51.49555 -52.01191 35965 ft 423 kts 249°
2026-05-03 23:05 51.47280 -52.09852 35971 ft 423 kts 249°
2026-05-03 23:06 51.44985 -52.18555 35964 ft 423 kts 249°
2026-05-03 23:06 51.42682 -52.27255 35963 ft 423 kts 249°
2026-05-03 23:07 51.40374 -52.35945 35956 ft 423 kts 249°
2026-05-03 23:07 51.38072 -52.44576 35957 ft 423 kts 249°
2026-05-03 23:08 51.35758 -52.53227 35960 ft 422 kts 248°
2026-05-03 23:08 51.33440 -52.61851 35950 ft 421 kts 248°
2026-05-03 23:09 51.31117 -52.70462 35950 ft 421 kts 248°
2026-05-03 23:09 51.28788 -52.79067 35944 ft 422 kts 248°
2026-05-03 23:10 51.26466 -52.87610 35943 ft 422 kts 248°
2026-05-03 23:10 51.24124 -52.96202 35938 ft 423 kts 247°
2026-05-03 23:11 51.21764 -53.04825 35936 ft 423 kts 247°
2026-05-03 23:11 51.19395 -53.13447 35927 ft 424 kts 247°
2026-05-03 23:12 51.17040 -53.21985 35927 ft 424 kts 247°
2026-05-03 23:12 51.14593 -53.30549 35925 ft 424 kts 245°
2026-05-03 23:13 51.12012 -53.38994 35921 ft 424 kts 244°
2026-05-03 23:13 51.09420 -53.47445 35917 ft 425 kts 245°
2026-05-03 23:14 51.06838 -53.55930 35930 ft 425 kts 244°
2026-05-03 23:14 51.04285 -53.64330 35914 ft 424 kts 244°
2026-05-03 23:15 51.01712 -53.72773 35914 ft 424 kts 244°
2026-05-03 23:15 50.99129 -53.81216 35910 ft 424 kts 244°
2026-05-03 23:16 50.96540 -53.89646 35893 ft 424 kts 244°
2026-05-03 23:16 50.93963 -53.98003 35908 ft 424 kts 244°
2026-05-03 23:17 50.91364 -54.06407 35909 ft 424 kts 244°
2026-05-03 23:17 50.88758 -54.14804 35903 ft 424 kts 244°
2026-05-03 23:18 50.86144 -54.23198 35901 ft 424 kts 243°
2026-05-03 23:18 50.83549 -54.31502 35895 ft 423 kts 243°
2026-05-03 23:19 50.80934 -54.39839 35895 ft 423 kts 243°
2026-05-03 23:19 50.79625 -54.44006 36068 ft 422 kts 243°
2026-05-03 23:19 50.78313 -54.48170 36344 ft 421 kts 243°
2026-05-03 23:19 50.77008 -54.52307 36569 ft 422 kts 243°
2026-05-03 23:20 50.75709 -54.56418 36780 ft 422 kts 243°
2026-05-03 23:20 50.74397 -54.60565 36989 ft 423 kts 243°
2026-05-03 23:20 50.73083 -54.64711 37187 ft 423 kts 243°
2026-05-03 23:20 50.71763 -54.68870 37510 ft 420 kts 243°
2026-05-03 23:21 50.70448 -54.73006 37750 ft 420 kts 243°
2026-05-03 23:21 50.69134 -54.77130 37871 ft 422 kts 243°
2026-05-03 23:21 50.67826 -54.81226 37894 ft 425 kts 243°
2026-05-03 23:22 50.63811 -54.93763 37891 ft 427 kts 243°
2026-05-03 23:22 50.61129 -55.02105 37889 ft 427 kts 243°
2026-05-03 23:23 50.58443 -55.10431 37890 ft 427 kts 243°
2026-05-03 23:23 50.55747 -55.18760 37890 ft 427 kts 242°
2026-05-03 23:24 50.53043 -55.27084 37890 ft 427 kts 242°
2026-05-03 23:24 50.50337 -55.35389 37889 ft 427 kts 242°
2026-05-03 23:25 50.47641 -55.43634 37890 ft 427 kts 242°
2026-05-03 23:25 50.44925 -55.51915 37893 ft 425 kts 242°
2026-05-03 23:26 50.42214 -55.60150 37889 ft 424 kts 242°
2026-05-03 23:26 50.39516 -55.68321 37900 ft 425 kts 241°
2026-05-03 23:27 50.36788 -55.76555 37894 ft 426 kts 241°
2026-05-03 23:27 50.34052 -55.84784 37891 ft 426 kts 241°
2026-05-03 23:28 50.31308 -55.93013 37885 ft 425 kts 240°
2026-05-03 23:28 50.28573 -56.01189 37883 ft 424 kts 240°
2026-05-03 23:29 50.25847 -56.09311 37885 ft 424 kts 240°
2026-05-03 23:29 50.23100 -56.17467 37889 ft 424 kts 240°
2026-05-03 23:30 50.20349 -56.25612 37890 ft 424 kts 240°
2026-05-03 23:30 50.17592 -56.33744 37886 ft 423 kts 240°
2026-05-03 23:31 50.14832 -56.41859 37870 ft 422 kts 240°
2026-05-03 23:31 50.12090 -56.49900 37867 ft 422 kts 239°
2026-05-03 23:32 50.09327 -56.57977 37878 ft 422 kts 239°
2026-05-03 23:32 50.06555 -56.66051 37878 ft 422 kts 239°
2026-05-03 23:33 50.03777 -56.74121 37872 ft 423 kts 238°
2026-05-03 23:33 50.00986 -56.82198 37863 ft 424 kts 238°
2026-05-03 23:34 49.98670 -56.88883 37860 ft 423 kts 238°
2026-05-03 23:34 49.95871 -56.96938 37852 ft 423 kts 238°
2026-05-03 23:35 49.93068 -57.04981 37851 ft 423 kts 238°
2026-05-03 23:35 49.90256 -57.13025 37839 ft 423 kts 238°
2026-05-03 23:36 49.87459 -57.20999 37840 ft 423 kts 237°
2026-05-03 23:36 49.84635 -57.29025 37819 ft 423 kts 237°
2026-05-03 23:37 49.81807 -57.37037 37821 ft 423 kts 237°
2026-05-03 23:37 49.78976 -57.45033 37803 ft 423 kts 237°
2026-05-03 23:38 49.76139 -57.53025 37803 ft 423 kts 237°
2026-05-03 23:38 49.73313 -57.60955 37790 ft 423 kts 237°
2026-05-03 23:39 49.70467 -57.68920 37777 ft 423 kts 237°
2026-05-03 23:39 49.67600 -57.76931 37762 ft 428 kts 237°
2026-05-03 23:40 49.64703 -57.84977 37758 ft 429 kts 237°
2026-05-03 23:40 49.61808 -57.92999 37755 ft 428 kts 236°
2026-05-03 23:41 49.58896 -58.01045 37754 ft 429 kts 236°
2026-05-03 23:41 49.55987 -58.09063 37733 ft 428 kts 236°
2026-05-03 23:42 49.53069 -58.17079 37733 ft 428 kts 236°
2026-05-03 23:42 49.50170 -58.25017 37722 ft 428 kts 236°
2026-05-03 23:43 49.47232 -58.33038 37721 ft 430 kts 236°
2026-05-03 23:43 49.44288 -58.41047 37716 ft 431 kts 236°
2026-05-03 23:44 49.41335 -58.49062 37710 ft 431 kts 236°
2026-05-03 23:44 49.38391 -58.57026 37702 ft 431 kts 235°
2026-05-03 23:45 49.35431 -58.65008 37738 ft 431 kts 235°
2026-05-03 23:45 49.32445 -58.73033 37713 ft 434 kts 235°
2026-05-03 23:46 49.29441 -58.81082 37695 ft 435 kts 235°
2026-05-03 23:46 49.26422 -58.89150 37696 ft 435 kts 235°
2026-05-03 23:47 49.23406 -58.97186 37688 ft 435 kts 235°
2026-05-03 23:47 49.20403 -59.05162 37691 ft 435 kts 234°
2026-05-03 23:48 49.17370 -59.13191 37679 ft 435 kts 234°
2026-05-03 23:48 49.14331 -59.21212 37679 ft 435 kts 234°
2026-05-03 23:49 49.11289 -59.29215 37676 ft 435 kts 234°
2026-05-03 23:49 49.08256 -59.37173 37674 ft 435 kts 234°
2026-05-03 23:50 49.05720 -59.43806 37676 ft 436 kts 234°
2026-05-03 23:50 49.02146 -59.53124 37666 ft 437 kts 234°
2026-05-03 23:51 48.99068 -59.61127 37699 ft 438 kts 234°
2026-05-03 23:51 48.95969 -59.69158 37667 ft 440 kts 234°
2026-05-03 23:52 48.92854 -59.77206 37660 ft 441 kts 234°
2026-05-03 23:52 48.89729 -59.85257 37656 ft 443 kts 233°
2026-05-03 23:53 48.86604 -59.93283 37652 ft 443 kts 233°
2026-05-03 23:53 48.83457 -60.01340 37658 ft 443 kts 233°
2026-05-03 23:54 48.80306 -60.09385 37657 ft 443 kts 233°
2026-05-03 23:54 48.77161 -60.17389 37657 ft 444 kts 233°
2026-05-03 23:55 48.73974 -60.25471 37638 ft 447 kts 233°
2026-05-03 23:55 48.70776 -60.33558 37650 ft 448 kts 233°
2026-05-03 23:56 48.67572 -60.41643 37654 ft 448 kts 233°
2026-05-03 23:56 48.64357 -60.49728 37646 ft 448 kts 233°
2026-05-03 23:57 48.61149 -60.57767 37637 ft 451 kts 233°
2026-05-03 23:57 48.57890 -60.65906 37636 ft 454 kts 233°
2026-05-03 23:58 48.54614 -60.74071 37641 ft 454 kts 233°
2026-05-03 23:58 48.51334 -60.82221 37633 ft 454 kts 233°
2026-05-03 23:59 48.48042 -60.90374 37632 ft 454 kts 233°
2026-05-03 23:59 48.44763 -60.98467 37625 ft 456 kts 233°
2026-05-04 00:00 48.41446 -61.06629 37622 ft 456 kts 233°
2026-05-04 00:00 48.38132 -61.14764 37622 ft 456 kts 233°
2026-05-04 00:01 48.34807 -61.22898 37609 ft 456 kts 233°
2026-05-04 00:01 48.31469 -61.31037 37609 ft 458 kts 233°
2026-05-04 00:02 48.28119 -61.39181 37597 ft 459 kts 233°
2026-05-04 00:02 48.24778 -61.47283 37593 ft 459 kts 233°
2026-05-04 00:03 48.21400 -61.55445 37589 ft 460 kts 233°
2026-05-04 00:03 48.18016 -61.63599 37578 ft 461 kts 233°
2026-05-04 00:04 48.14614 -61.71771 37575 ft 462 kts 233°
2026-05-04 00:04 48.11205 -61.79937 37578 ft 462 kts 233°
2026-05-04 00:05 48.07809 -61.88049 37578 ft 462 kts 233°
2026-05-04 00:05 48.04384 -61.96202 37585 ft 462 kts 233°
2026-05-04 00:06 48.00954 -62.04341 37552 ft 463 kts 233°
2026-05-04 00:06 47.97524 -62.12459 37554 ft 464 kts 233°
2026-05-04 00:07 47.94070 -62.20608 37560 ft 464 kts 233°
2026-05-04 00:07 47.90636 -62.28688 37560 ft 464 kts 233°
2026-05-04 00:08 47.87167 -62.36822 37551 ft 466 kts 233°
2026-05-04 00:08 47.83678 -62.44976 37548 ft 467 kts 233°
2026-05-04 00:09 47.80175 -62.53145 37559 ft 467 kts 233°
2026-05-04 00:09 47.76689 -62.61249 37547 ft 467 kts 233°
2026-05-04 00:10 47.73172 -62.69399 37548 ft 467 kts 232°
2026-05-04 00:10 47.69653 -62.77530 37542 ft 467 kts 232°
2026-05-04 00:11 47.66131 -62.85642 37543 ft 467 kts 232°
2026-05-04 00:11 47.62620 -62.93706 37542 ft 467 kts 232°
2026-05-04 00:12 47.59081 -63.01809 37546 ft 468 kts 232°
2026-05-04 00:12 47.55550 -63.09869 37535 ft 470 kts 232°
2026-05-04 00:13 47.51995 -63.17963 37550 ft 470 kts 233°
2026-05-04 00:13 47.48419 -63.26082 37547 ft 471 kts 233°
2026-05-04 00:14 47.44833 -63.34197 37555 ft 471 kts 233°
2026-05-04 00:14 47.41238 -63.42305 37542 ft 472 kts 233°
2026-05-04 00:15 47.37656 -63.50367 37561 ft 472 kts 233°
2026-05-04 00:15 47.34044 -63.58470 37561 ft 472 kts 233°
2026-05-04 00:16 47.30428 -63.66557 37577 ft 472 kts 233°
2026-05-04 00:16 47.26799 -63.74648 37562 ft 473 kts 233°
2026-05-04 00:17 47.23170 -63.82717 37572 ft 473 kts 233°
2026-05-04 00:17 47.19544 -63.90756 37573 ft 473 kts 233°
2026-05-04 00:18 47.15894 -63.98823 37567 ft 473 kts 233°
2026-05-04 00:18 47.12239 -64.06879 37522 ft 474 kts 233°
2026-05-04 00:19 47.08571 -64.14938 37522 ft 474 kts 233°
2026-05-04 00:19 47.04904 -64.22975 37528 ft 474 kts 233°
2026-05-04 00:20 47.01846 -64.29656 37530 ft 474 kts 233°
2026-05-04 00:20 46.98162 -64.37686 37523 ft 475 kts 233°
2026-05-04 00:21 46.94478 -64.45691 37517 ft 475 kts 233°
2026-05-04 00:21 46.90772 -64.53721 37517 ft 475 kts 233°
2026-05-04 00:22 46.87087 -64.61684 37514 ft 475 kts 233°
2026-05-04 00:22 46.83374 -64.69683 37515 ft 475 kts 233°
2026-05-04 00:23 46.79665 -64.77652 37514 ft 474 kts 233°
2026-05-04 00:23 46.75945 -64.85619 37531 ft 475 kts 233°
2026-05-04 00:24 46.72210 -64.93595 37528 ft 476 kts 233°
2026-05-04 00:24 46.68495 -65.01507 37529 ft 476 kts 233°
2026-05-04 00:25 46.64747 -65.09469 37532 ft 476 kts 233°
2026-05-04 00:25 46.60990 -65.17425 37551 ft 476 kts 233°
2026-05-04 00:26 46.57227 -65.25370 37548 ft 477 kts 233°
2026-05-04 00:26 46.53462 -65.33298 37547 ft 477 kts 233°
2026-05-04 00:27 46.49704 -65.41190 37551 ft 477 kts 233°
2026-05-04 00:27 46.45924 -65.49105 37557 ft 477 kts 233°
2026-05-04 00:28 46.42132 -65.57023 37556 ft 477 kts 233°
2026-05-04 00:28 46.38335 -65.64927 37554 ft 477 kts 233°
2026-05-04 00:29 46.34556 -65.72773 37553 ft 478 kts 233°
2026-05-04 00:29 46.30749 -65.80656 37567 ft 478 kts 233°
2026-05-04 00:30 46.26935 -65.88530 37562 ft 478 kts 233°
2026-05-04 00:30 46.23116 -65.96392 37582 ft 477 kts 233°
2026-05-04 00:31 46.19296 -66.04234 37565 ft 478 kts 233°
2026-05-04 00:31 46.15461 -66.12086 37576 ft 478 kts 233°
2026-05-04 00:32 46.11630 -66.19907 37578 ft 478 kts 233°
2026-05-04 00:32 46.07789 -66.27726 37575 ft 478 kts 233°
2026-05-04 00:33 46.02042 -66.39386 37598 ft 478 kts 233°
2026-05-04 00:34 45.98185 -66.47185 37590 ft 478 kts 233°
2026-05-04 00:34 45.94326 -66.54965 37589 ft 477 kts 233°
2026-05-04 00:35 45.90470 -66.62718 37589 ft 477 kts 233°
2026-05-04 00:35 45.86599 -66.70480 37606 ft 477 kts 233°
2026-05-04 00:36 45.82757 -66.78162 37608 ft 477 kts 233°
2026-05-04 00:36 45.78884 -66.85886 37606 ft 477 kts 233°
2026-05-04 00:37 45.74999 -66.93613 37607 ft 477 kts 233°
2026-05-04 00:37 45.71126 -67.01294 37620 ft 477 kts 233°
2026-05-04 00:38 45.67234 -67.08994 37624 ft 477 kts 233°
2026-05-04 00:38 45.63330 -67.16694 37626 ft 477 kts 233°
2026-05-04 00:39 45.59447 -67.24333 37624 ft 478 kts 233°
2026-05-04 00:39 45.55530 -67.32019 37637 ft 478 kts 233°
2026-05-04 00:40 45.51617 -67.39676 37639 ft 478 kts 233°
2026-05-04 00:40 45.47694 -67.47330 37636 ft 477 kts 233°
2026-05-04 00:41 45.43768 -67.54971 37638 ft 477 kts 233°
2026-05-04 00:41 45.39847 -67.62583 37652 ft 477 kts 233°
2026-05-04 00:42 45.35931 -67.70164 37648 ft 477 kts 233°
2026-05-04 00:42 45.31975 -67.77748 37659 ft 476 kts 232°
2026-05-04 00:43 45.27895 -67.85180 37658 ft 476 kts 231°
2026-05-04 00:43 45.23792 -67.92566 37666 ft 477 kts 231°
2026-05-04 00:44 45.19700 -67.99964 37670 ft 477 kts 232°
2026-05-04 00:44 45.15630 -68.07337 37669 ft 476 kts 232°
2026-05-04 00:45 45.11547 -68.14724 37677 ft 476 kts 232°
2026-05-04 00:45 45.07455 -68.22107 37686 ft 476 kts 232°
2026-05-04 00:46 45.03362 -68.29469 37688 ft 476 kts 232°
2026-05-04 00:46 44.99257 -68.36834 37689 ft 476 kts 232°
2026-05-04 00:47 44.95148 -68.44187 37697 ft 476 kts 232°
2026-05-04 00:47 44.91043 -68.51514 37702 ft 476 kts 232°
2026-05-04 00:48 44.86951 -68.58799 37707 ft 476 kts 232°
2026-05-04 00:48 44.82833 -68.66112 37709 ft 477 kts 232°
2026-05-04 00:49 44.78696 -68.73439 37711 ft 477 kts 232°
2026-05-04 00:49 44.74554 -68.80757 37711 ft 477 kts 232°
2026-05-04 00:50 44.70681 -68.87583 37710 ft 477 kts 232°
2026-05-04 00:50 44.66555 -68.94836 37710 ft 477 kts 232°
2026-05-04 00:51 44.62404 -69.02115 37710 ft 477 kts 232°
2026-05-04 00:51 44.58249 -69.09381 37719 ft 477 kts 232°
2026-05-04 00:52 44.54091 -69.16636 37727 ft 476 kts 232°
2026-05-04 00:52 44.49931 -69.23876 37727 ft 476 kts 232°
2026-05-04 00:53 44.45767 -69.31104 37721 ft 476 kts 232°
2026-05-04 00:53 44.41627 -69.38271 37741 ft 476 kts 232°
2026-05-04 00:54 44.37452 -69.45482 37742 ft 476 kts 232°
2026-05-04 00:54 44.33280 -69.52669 37760 ft 476 kts 232°
2026-05-04 00:55 44.29099 -69.59855 37754 ft 476 kts 232°
2026-05-04 00:55 44.24919 -69.67021 37769 ft 475 kts 232°
2026-05-04 00:56 44.20763 -69.74128 37777 ft 475 kts 232°
2026-05-04 00:56 44.16578 -69.81267 37778 ft 475 kts 232°
2026-05-04 00:57 44.12389 -69.88393 37785 ft 475 kts 232°
2026-05-04 00:57 44.08197 -69.95508 37816 ft 475 kts 232°
2026-05-04 00:58 44.04003 -70.02609 37831 ft 475 kts 232°
2026-05-04 00:58 43.99816 -70.09680 37786 ft 474 kts 232°
2026-05-04 00:59 43.95638 -70.16720 37794 ft 473 kts 232°
2026-05-04 00:59 43.91444 -70.23770 37796 ft 473 kts 232°
2026-05-04 01:00 43.87248 -70.30805 37795 ft 473 kts 232°
2026-05-04 01:00 43.83054 -70.37818 37797 ft 472 kts 232°
2026-05-04 01:01 43.78857 -70.44822 37808 ft 472 kts 232°
2026-05-04 01:01 43.74659 -70.51808 37812 ft 472 kts 232°
2026-05-04 01:02 43.70459 -70.58784 37817 ft 472 kts 232°
2026-05-04 01:02 43.66260 -70.65738 37820 ft 471 kts 232°
2026-05-04 01:03 43.62084 -70.72640 37830 ft 470 kts 232°
2026-05-04 01:03 43.57899 -70.79539 37845 ft 468 kts 232°
2026-05-04 01:04 43.53376 -70.86004 37844 ft 471 kts 221°
2026-05-04 01:04 43.47847 -70.90923 37848 ft 473 kts 213°
2026-05-04 01:05 43.42119 -70.95393 37845 ft 474 kts 212°
2026-05-04 01:05 43.36355 -70.99817 37846 ft 474 kts 213°
2026-05-04 01:06 43.31581 -71.03502 37852 ft 474 kts 213°
2026-05-04 01:06 43.25847 -71.07949 37849 ft 473 kts 213°
2026-05-04 01:07 43.20108 -71.12398 37845 ft 473 kts 213°
2026-05-04 01:07 43.14368 -71.16839 37848 ft 473 kts 213°
2026-05-04 01:08 43.08688 -71.21381 37854 ft 471 kts 218°
2026-05-04 01:08 43.03914 -71.27303 37865 ft 464 kts 232°
2026-05-04 01:09 42.99823 -71.34127 37867 ft 463 kts 233°
2026-05-04 01:09 42.95758 -71.40965 37869 ft 463 kts 233°
2026-05-04 01:10 42.91688 -71.47792 37871 ft 463 kts 233°
2026-05-04 01:10 42.87615 -71.54607 37896 ft 463 kts 233°
2026-05-04 01:11 42.83537 -71.61414 37882 ft 463 kts 233°
2026-05-04 01:11 42.79485 -71.68162 37883 ft 463 kts 233°
2026-05-04 01:12 42.75390 -71.74966 37877 ft 463 kts 233°
2026-05-04 01:12 42.71304 -71.81738 37877 ft 462 kts 233°
2026-05-04 01:13 42.67246 -71.88450 37888 ft 462 kts 233°
2026-05-04 01:13 42.63163 -71.95189 37885 ft 463 kts 233°
2026-05-04 01:14 42.59056 -72.01951 37872 ft 464 kts 233°
2026-05-04 01:14 42.54942 -72.08708 37886 ft 463 kts 233°
2026-05-04 01:15 42.50839 -72.15432 37890 ft 463 kts 233°
2026-05-04 01:15 42.46730 -72.22152 37893 ft 463 kts 233°
2026-05-04 01:16 42.42610 -72.28873 37885 ft 463 kts 233°
2026-05-04 01:16 42.38502 -72.35560 37895 ft 462 kts 233°
2026-05-04 01:17 42.34413 -72.42201 37879 ft 462 kts 233°
2026-05-04 01:17 42.30293 -72.48878 37878 ft 462 kts 233°
2026-05-04 01:18 42.26173 -72.55539 37877 ft 461 kts 233°
2026-05-04 01:18 42.22062 -72.62170 37878 ft 459 kts 233°
2026-05-04 01:19 42.17974 -72.68752 37909 ft 459 kts 233°
2026-05-04 01:19 42.13916 -72.75393 37906 ft 459 kts 235°
2026-05-04 01:20 42.09999 -72.82178 37904 ft 458 kts 235°
2026-05-04 01:20 42.06070 -72.88922 37902 ft 457 kts 234°
2026-05-04 01:21 42.02578 -72.94884 37903 ft 457 kts 234°
2026-05-04 01:21 41.98897 -73.01151 37906 ft 458 kts 234°
2026-05-04 01:22 41.94946 -73.07861 37896 ft 457 kts 235°
2026-05-04 01:22 41.90997 -73.14546 37903 ft 456 kts 234°
2026-05-04 01:23 41.87052 -73.21199 37903 ft 455 kts 234°
2026-05-04 01:23 41.83137 -73.27791 37904 ft 455 kts 234°
2026-05-04 01:24 41.79176 -73.34455 37886 ft 457 kts 234°
2026-05-04 01:24 41.75216 -73.41106 37900 ft 455 kts 234°
2026-05-04 01:25 41.71268 -73.47721 37908 ft 455 kts 234°
2026-05-04 01:25 41.67306 -73.54345 37911 ft 455 kts 234°
2026-05-04 01:26 41.63355 -73.60939 37915 ft 455 kts 234°
2026-05-04 01:26 41.61375 -73.64238 37666 ft 453 kts 234°
2026-05-04 01:26 41.59401 -73.67521 37442 ft 452 kts 234°
2026-05-04 01:26 41.57463 -73.70743 37182 ft 452 kts 234°
2026-05-04 01:27 41.55492 -73.74018 36921 ft 452 kts 234°
2026-05-04 01:27 41.53520 -73.77290 36674 ft 453 kts 234°
2026-05-04 01:27 41.51535 -73.80553 36426 ft 454 kts 233°
2026-05-04 01:27 41.49387 -73.83660 36175 ft 456 kts 229°
2026-05-04 01:28 41.47156 -73.86680 35955 ft 457 kts 229°
2026-05-04 01:28 41.42688 -73.92688 35891 ft 456 kts 229°
2026-05-04 01:29 41.38230 -73.98680 35902 ft 455 kts 229°
2026-05-04 01:29 41.33762 -74.04679 35912 ft 455 kts 229°
2026-05-04 01:30 41.29297 -74.10663 35894 ft 455 kts 230°
2026-05-04 01:30 41.24875 -74.16576 35929 ft 452 kts 230°
2026-05-04 01:31 41.20457 -74.22512 35938 ft 450 kts 231°
2026-05-04 01:31 41.16832 -74.29167 35945 ft 444 kts 242°
2026-05-04 01:32 41.13624 -74.36181 35956 ft 444 kts 242°
2026-05-04 01:32 41.10409 -74.43170 35956 ft 444 kts 242°
2026-05-04 01:33 41.07190 -74.50137 35958 ft 443 kts 242°
2026-05-04 01:33 41.03964 -74.57102 35957 ft 443 kts 242°
2026-05-04 01:34 41.00734 -74.64060 35954 ft 443 kts 242°
2026-05-04 01:34 40.97523 -74.70957 35950 ft 443 kts 242°
2026-05-04 01:35 40.94290 -74.77888 35947 ft 441 kts 242°
2026-05-04 01:35 40.91068 -74.84786 35951 ft 440 kts 242°
2026-05-04 01:36 40.87844 -74.91660 35946 ft 440 kts 242°
2026-05-04 01:36 40.84606 -74.98541 35947 ft 440 kts 242°
2026-05-04 01:37 40.81392 -75.05360 35949 ft 440 kts 242°
2026-05-04 01:37 40.78169 -75.12183 35945 ft 434 kts 242°
2026-05-04 01:38 40.74987 -75.18904 35961 ft 430 kts 242°
2026-05-04 01:38 40.71814 -75.25598 35967 ft 430 kts 241°
2026-05-04 01:39 40.68636 -75.32285 35972 ft 430 kts 241°
2026-05-04 01:39 40.65453 -75.38976 35970 ft 430 kts 242°
2026-05-04 01:40 40.62507 -75.45816 35970 ft 429 kts 244°
2026-05-04 01:40 40.59597 -75.52655 35817 ft 436 kts 244°
2026-05-04 01:40 40.58105 -75.56129 35580 ft 436 kts 244°
2026-05-04 01:41 40.56610 -75.59594 35341 ft 435 kts 244°
2026-05-04 01:41 40.55116 -75.63048 35095 ft 432 kts 244°
2026-05-04 01:41 40.53635 -75.66469 34854 ft 430 kts 244°
2026-05-04 01:41 40.52157 -75.69876 34639 ft 428 kts 244°
2026-05-04 01:42 40.50686 -75.73264 34402 ft 425 kts 244°
2026-05-04 01:42 40.49235 -75.76600 34066 ft 418 kts 244°
2026-05-04 01:42 40.47801 -75.79893 33540 ft 413 kts 244°
2026-05-04 01:42 40.46384 -75.83144 33020 ft 407 kts 244°
2026-05-04 01:43 40.44982 -75.86338 32568 ft 401 kts 244°
2026-05-04 01:43 40.43380 -75.89330 32117 ft 402 kts 236°
2026-05-04 01:43 40.41439 -75.91987 31653 ft 401 kts 231°
2026-05-04 01:43 40.39439 -75.94514 31195 ft 397 kts 231°
2026-05-04 01:44 40.37453 -75.97015 30745 ft 393 kts 232°
2026-05-04 01:44 40.35493 -75.99489 30281 ft 389 kts 232°
2026-05-04 01:44 40.33582 -76.01905 29783 ft 385 kts 232°
2026-05-04 01:44 40.31675 -76.04318 29332 ft 379 kts 232°
2026-05-04 01:45 40.29781 -76.06711 28873 ft 373 kts 232°
2026-05-04 01:45 40.27928 -76.09052 28426 ft 368 kts 232°
2026-05-04 01:45 40.24292 -76.13642 27593 ft 357 kts 232°
2026-05-04 01:46 40.22511 -76.15888 27162 ft 353 kts 232°
2026-05-04 01:46 40.20745 -76.18117 26746 ft 352 kts 232°
2026-05-04 01:46 40.18985 -76.20336 26327 ft 352 kts 232°
2026-05-04 01:46 40.17225 -76.22554 25907 ft 351 kts 231°
2026-05-04 01:47 40.15491 -76.24734 25486 ft 350 kts 231°
2026-05-04 01:47 40.13740 -76.26935 25067 ft 348 kts 231°
2026-05-04 01:47 40.12086 -76.29216 24647 ft 342 kts 238°
2026-05-04 01:47 40.10761 -76.31750 24244 ft 336 kts 244°
2026-05-04 01:48 40.09559 -76.34359 23819 ft 335 kts 245°
2026-05-04 01:48 40.08372 -76.36954 23404 ft 331 kts 245°
2026-05-04 01:48 40.07194 -76.39517 22975 ft 326 kts 245°
2026-05-04 01:48 40.06029 -76.42051 22568 ft 325 kts 245°
2026-05-04 01:49 40.04861 -76.44586 22163 ft 325 kts 244°
2026-05-04 01:49 40.03697 -76.47108 21750 ft 325 kts 244°
2026-05-04 01:49 40.02528 -76.49632 21340 ft 324 kts 244°
2026-05-04 01:49 40.01382 -76.52109 20928 ft 322 kts 244°
2026-05-04 01:50 40.00224 -76.54606 20514 ft 321 kts 244°
2026-05-04 01:50 39.99070 -76.57095 20121 ft 320 kts 244°
2026-05-04 01:50 39.97918 -76.59575 19710 ft 319 kts 244°
2026-05-04 01:50 39.96767 -76.62052 19304 ft 318 kts 243°
2026-05-04 01:51 39.95628 -76.64511 18920 ft 317 kts 243°
2026-05-04 01:51 39.94485 -76.66969 18498 ft 316 kts 243°
2026-05-04 01:51 39.93341 -76.69420 18062 ft 315 kts 243°
2026-05-04 01:51 39.92207 -76.71851 17623 ft 314 kts 243°
2026-05-04 01:52 39.91076 -76.74273 17197 ft 312 kts 243°
2026-05-04 01:52 39.89948 -76.76687 16783 ft 311 kts 243°
2026-05-04 01:52 39.88825 -76.79090 16395 ft 310 kts 243°
2026-05-04 01:52 39.88082 -76.80679 16125 ft 309 kts 242°
2026-05-04 01:53 39.86967 -76.83062 15722 ft 308 kts 242°
2026-05-04 01:53 39.85857 -76.85434 15335 ft 307 kts 242°
2026-05-04 01:53 39.84747 -76.87805 14941 ft 306 kts 242°
2026-05-04 01:53 39.83642 -76.90159 14551 ft 304 kts 241°
2026-05-04 01:54 39.82541 -76.92506 14145 ft 303 kts 241°
2026-05-04 01:54 39.81447 -76.94845 13773 ft 302 kts 241°
2026-05-04 01:54 39.80361 -76.97154 13347 ft 301 kts 241°
2026-05-04 01:54 39.79269 -76.99475 12965 ft 300 kts 241°
2026-05-04 01:55 39.78180 -77.01791 12583 ft 300 kts 241°
2026-05-04 01:55 39.77095 -77.04101 12201 ft 299 kts 240°
2026-05-04 01:55 39.76005 -77.06410 11807 ft 298 kts 240°
2026-05-04 01:55 39.74924 -77.08698 11417 ft 297 kts 240°
2026-05-04 01:56 39.73855 -77.10958 11180 ft 288 kts 240°
2026-05-04 01:56 39.72827 -77.13129 11058 ft 275 kts 240°
2026-05-04 01:56 39.71844 -77.15205 10913 ft 265 kts 240°
2026-05-04 01:56 39.70893 -77.17215 10756 ft 257 kts 240°
2026-05-04 01:57 39.69961 -77.19187 10484 ft 256 kts 240°
2026-05-04 01:57 39.68996 -77.21130 10172 ft 257 kts 235°
2026-05-04 01:57 39.67720 -77.22714 9881 ft 260 kts 214°
2026-05-04 01:57 39.66012 -77.23779 9828 ft 276 kts 205°
2026-05-04 01:58 39.64237 -77.24672 9767 ft 278 kts 204°
2026-05-04 01:58 39.62435 -77.25564 9483 ft 275 kts 204°
2026-05-04 01:58 39.60651 -77.26455 9150 ft 275 kts 204°
2026-05-04 01:58 39.58862 -77.27355 8939 ft 276 kts 204°
2026-05-04 01:59 39.57072 -77.28258 8745 ft 275 kts 204°
2026-05-04 01:59 39.55287 -77.29160 8541 ft 275 kts 204°
2026-05-04 01:59 39.53507 -77.30060 8354 ft 274 kts 205°
2026-05-04 01:59 39.51737 -77.30955 8171 ft 273 kts 205°
2026-05-04 02:00 39.49964 -77.31854 7964 ft 272 kts 205°
2026-05-04 02:00 39.48199 -77.32747 7776 ft 271 kts 205°
2026-05-04 02:00 39.46442 -77.33634 7582 ft 271 kts 204°
2026-05-04 02:00 39.44706 -77.34511 7395 ft 271 kts 204°
2026-05-04 02:01 39.42952 -77.35397 7203 ft 270 kts 204°
2026-05-04 02:01 39.41147 -77.36184 7006 ft 272 kts 195°
2026-05-04 02:01 39.39251 -77.36383 6761 ft 274 kts 182°
2026-05-04 02:01 39.37368 -77.36331 6488 ft 274 kts 181°
2026-05-04 02:02 39.35467 -77.36262 6213 ft 273 kts 181°
2026-05-04 02:02 39.33567 -77.36201 5938 ft 272 kts 182°
2026-05-04 02:02 39.31684 -77.36147 5691 ft 270 kts 182°
2026-05-04 02:02 39.29810 -77.36097 5427 ft 269 kts 182°
2026-05-04 02:03 39.27941 -77.36051 5162 ft 268 kts 182°
2026-05-04 02:03 39.26080 -77.36004 4937 ft 266 kts 182°
2026-05-04 02:03 39.24230 -77.35955 4744 ft 266 kts 182°
2026-05-04 02:03 39.22382 -77.35910 4572 ft 265 kts 182°
2026-05-04 02:04 39.20563 -77.35867 4400 ft 264 kts 182°
2026-05-04 02:04 39.18698 -77.35821 4208 ft 264 kts 182°
2026-05-04 02:04 39.16888 -77.35777 4049 ft 263 kts 182°
2026-05-04 02:04 39.15057 -77.35745 3999 ft 263 kts 183°
2026-05-04 02:05 39.13238 -77.35743 3930 ft 255 kts 183°
2026-05-04 02:05 39.11526 -77.35739 3898 ft 238 kts 184°
2026-05-04 02:05 39.09906 -77.35738 3883 ft 231 kts 183°
2026-05-04 02:05 39.08297 -77.35739 3866 ft 232 kts 183°
2026-05-04 02:06 39.06682 -77.35738 3825 ft 232 kts 183°
2026-05-04 02:06 39.05069 -77.35735 3805 ft 232 kts 183°
2026-05-04 02:06 39.03455 -77.35732 3772 ft 231 kts 183°
2026-05-04 02:06 39.01843 -77.35729 3749 ft 231 kts 183°
2026-05-04 02:07 39.00275 -77.35722 3711 ft 217 kts 183°
2026-05-04 02:07 38.98808 -77.35716 3548 ft 213 kts 183°
2026-05-04 02:07 38.97327 -77.35714 3206 ft 212 kts 183°
2026-05-04 02:07 38.95862 -77.35712 3020 ft 209 kts 182°
2026-05-04 02:08 38.94410 -77.35709 3000 ft 208 kts 182°
2026-05-04 02:08 38.93015 -77.35703 3000 ft 191 kts 182°
2026-05-04 02:08 38.91693 -77.35699 2906 ft 191 kts 183°
2026-05-04 02:08 38.90330 -77.35702 2462 ft 197 kts 182°
2026-05-04 02:09 38.88982 -77.35728 2203 ft 191 kts 184°
2026-05-04 02:09 38.87668 -77.35763 2025 ft 186 kts 182°
2026-05-04 02:09 38.86383 -77.35792 1996 ft 187 kts 182°
2026-05-04 02:09 38.85075 -77.35821 1998 ft 187 kts 182°
2026-05-04 02:10 38.83772 -77.35849 2001 ft 187 kts 182°
2026-05-04 02:10 38.82486 -77.35926 1991 ft 187 kts 189°
2026-05-04 02:10 38.81278 -77.36533 2000 ft 185 kts 217°
2026-05-04 02:10 38.80595 -77.37852 1989 ft 182 kts 261°
2026-05-04 02:11 38.80876 -77.39382 1966 ft 180 kts 304°
2026-05-04 02:11 38.81672 -77.40621 1854 ft 180 kts 311°
2026-05-04 02:11 38.82500 -77.41820 1736 ft 177 kts 310°
2026-05-04 02:11 38.83295 -77.42960 1595 ft 166 kts 315°
2026-05-04 02:12 38.84293 -77.43598 1500 ft 159 kts 343°
2026-05-04 02:12 38.85387 -77.43805 1507 ft 161 kts
2026-05-04 02:12 38.86505 -77.43674 1484 ft 162 kts
2026-05-04 02:12 38.87635 -77.43638 1302 ft 163 kts 358°
2026-05-04 02:13 38.88748 -77.43670 1068 ft 155 kts 358°
2026-05-04 02:13 38.89785 -77.43676 842 ft 147 kts
2026-05-04 02:13 38.90786 -77.43668 628 ft 141 kts
2026-05-04 02:13 38.91772 -77.43657 460 ft 142 kts
2026-05-04 02:14 38.92769 -77.43642 311 ft 144 kts
2026-05-04 02:14 38.93677 -77.43625 307 ft 115 kts
2026-05-04 02:14 38.94380 -77.43614 310 ft 86 kts
2026-05-04 02:14 38.94874 -77.43608 308 ft 57 kts
2026-05-04 02:15 38.95169 -77.43604 308 ft 27 kts
2026-05-04 02:15 38.95318 -77.43603 309 ft 15 kts 359°
2026-05-04 02:15 38.95387 -77.43669 310 ft 14 kts 284°
2026-05-04 02:15 38.95387 -77.43803 309 ft 16 kts 253°
2026-05-04 02:16 38.95290 -77.43851 308 ft 17 kts 184°
2026-05-04 02:16 38.95163 -77.43851 308 ft 20 kts 179°
2026-05-04 02:16 38.95024 -77.43852 307 ft 20 kts 182°
2026-05-04 02:16 38.94921 -77.43855 308 ft 15 kts 181°
2026-05-04 02:17 38.94812 -77.43857 307 ft 17 kts 180°
2026-05-04 02:17 38.94733 -77.43897 310 ft 11 kts 239°
2026-05-04 02:17 38.94717 -77.44008 309 ft 14 kts 271°
2026-05-04 02:17 38.94719 -77.44146 306 ft 17 kts 271°
2026-05-04 02:18 38.94721 -77.44291 309 ft 7 kts 270°
2026-05-04 02:18 38.94721 -77.44347 306 ft 8 kts 270°
2026-05-04 02:18 38.94721 -77.44436 306 ft 12 kts 270°
2026-05-04 02:18 38.94722 -77.44527 306 ft 10 kts 270°
2026-05-04 02:19 38.94723 -77.44606 308 ft 7 kts 271°
2026-05-04 02:19 38.94725 -77.44682 306 ft 10 kts 278°
2026-05-04 02:19 38.94765 -77.44741 309 ft 9 kts 344°
2026-05-04 02:19 38.94791 -77.44741 310 ft 2 kts
2026-05-04 02:20 38.94809 -77.44737 308 ft 0 kts 11°
2026-05-04 02:22 38.92836 -77.43641 306 ft 0 kts